Location: Unspecified
(0.0000°N, 0.0000°E)
Time: 05:40:57
(UTC+00:00)

Vanguard 3 - Pass Details

Date: 18 April 2021
Orbit: 507 x 3262 km, 33.4° (Epoch: 17 May)

Event Time Altitude Azimuth Distance (km) Brightness Sun altitude
Rises 19:56:05 0° 226° (SW) 7,022 12.3 -28.6°
Reaches altitude 10° 20:01:35 10° 220° (SW) 5,740 11.7 -29.9°
Enters shadow 20:16:48 46° 153° (SSE) 2,592 9.3 -33.7°
